• In Österreich
  • Länderverzeichnis
  • Für 7 Tage
  • Wassertemperatur
  • Satellitenkarten
  • Wetterkarte
  • News
  • Widgets
  • user-avatar
    Anmelden

    Stündliche Wetter Sungurlu

    Heute, 24 Februar, Samstag

    Zeit Temperatur Niederschläge Wind Luftdruck Luftfeuchtigkeit
    00:00 +8°C° 0 mm 2 m/S 691 mmHg 83%
    01:00 +7°C° 0 mm 2 m/S 691 mmHg 85%
    02:00 +7°C° 0 mm 1 m/S 690 mmHg 89%
    03:00 +7°C° 0 mm 1 m/S 690 mmHg 89%
    04:00 +7°C° 0 mm 1 m/S 690 mmHg 89%
    05:00 +7°C° 0 mm 1 m/S 690 mmHg 90%
    06:00 +7°C° 0 mm 1 m/S 690 mmHg 87%
    07:00 +8°C° 0 mm 1 m/S 690 mmHg 84%
    08:00 +8°C° 0 mm 1 m/S 690 mmHg 81%
    09:00 +9°C° 0 mm 1 m/S 690 mmHg 75%
    10:00 +10°C° 0 mm 1 m/S 690 mmHg 68%
    11:00 +12°C° 0 mm 1 m/S 690 mmHg 61%
    12:00 +13°C° 0,1 mm 2 m/S 690 mmHg 56%
    13:00 +14°C° 0,1 mm 2 m/S 689 mmHg 52%
    14:00 +15°C° 0,1 mm 2 m/S 689 mmHg 47%
    15:00 +14°C° 0,1 mm 2 m/S 688 mmHg 48%
    16:00 +14°C° 0,1 mm 2 m/S 688 mmHg 48%
    17:00 +14°C° 0,1 mm 2 m/S 688 mmHg 49%
    18:00 +13°C° 0 mm 2 m/S 688 mmHg 52%
    19:00 +12°C° 0 mm 2 m/S 687 mmHg 55%
    20:00 +10°C° 0 mm 2 m/S 687 mmHg 58%
    21:00 +10°C° 0 mm 2 m/S 687 mmHg 59%
    22:00 +9°C° 0 mm 2 m/S 686 mmHg 60%
    23:00 +9°C° 0 mm 2 m/S 686 mmHg 61%

    Morgen, 25 Februar, Sonntag

    Zeit Temperatur Niederschläge Wind Luftdruck Luftfeuchtigkeit
    00:00 +9°C° 0 mm 3 m/S 686 mmHg 62%
    01:00 +9°C° 0 mm 3 m/S 686 mmHg 63%
    02:00 +8°C° 0 mm 3 m/S 686 mmHg 65%
    03:00 +8°C° 0,7 mm 3 m/S 686 mmHg 68%
    04:00 +7°C° 0,7 mm 4 m/S 685 mmHg 72%
    05:00 +6°C° 0,7 mm 4 m/S 685 mmHg 76%
    06:00 +6°C° 0,1 mm 4 m/S 685 mmHg 73%
    07:00 +6°C° 0,1 mm 5 m/S 686 mmHg 71%
    08:00 +6°C° 0,1 mm 5 m/S 686 mmHg 69%
    09:00 +7°C° 0,1 mm 5 m/S 686 mmHg 66%
    10:00 +7°C° 0,1 mm 6 m/S 686 mmHg 64%
    11:00 +8°C° 0,1 mm 6 m/S 687 mmHg 61%
    12:00 +8°C° 0,1 mm 6 m/S 687 mmHg 60%
    13:00 +8°C° 0,1 mm 6 m/S 687 mmHg 59%
    14:00 +9°C° 0,1 mm 6 m/S 687 mmHg 57%
    15:00 +8°C° 0,1 mm 6 m/S 687 mmHg 60%
    16:00 +7°C° 0,1 mm 5 m/S 688 mmHg 62%
    17:00 +6°C° 0,1 mm 5 m/S 688 mmHg 64%
    18:00 +6°C° 0,1 mm 4 m/S 689 mmHg 67%
    19:00 +5°C° 0,1 mm 4 m/S 689 mmHg 70%
    20:00 +4°C° 0,1 mm 3 m/S 690 mmHg 73%
    21:00 +4°C° 0,2 mm 3 m/S 690 mmHg 75%
    22:00 +5°C° 0,2 mm 2 m/S 691 mmHg 76%
    23:00 +4°C° 0,2 mm 2 m/S 691 mmHg 78%

    übermorgen, 26 Februar, Montag

    Zeit Temperatur Niederschläge Wind Luftdruck Luftfeuchtigkeit
    00:00 +4°C° 0 mm 2 m/S 691 mmHg 79%
    01:00 +4°C° 0 mm 2 m/S 691 mmHg 81%
    02:00 +3°C° 0 mm 2 m/S 691 mmHg 82%
    03:00 +3°C° 0 mm 2 m/S 691 mmHg 84%
    04:00 +4°C° 0 mm 1 m/S 691 mmHg 86%
    05:00 +3°C° 0 mm 1 m/S 691 mmHg 87%
    06:00 +3°C° 0 mm 2 m/S 691 mmHg 85%
    07:00 +3°C° 0 mm 2 m/S 691 mmHg 83%
    08:00 +3°C° 0 mm 2 m/S 691 mmHg 81%
    09:00 +4°C° 0 mm 2 m/S 691 mmHg 76%
    10:00 +5°C° 0 mm 3 m/S 691 mmHg 71%
    11:00 +7°C° 0 mm 3 m/S 690 mmHg 65%
    12:00 +7°C° 0 mm 3 m/S 690 mmHg 62%
    13:00 +8°C° 0 mm 3 m/S 689 mmHg 59%
    14:00 +9°C° 0 mm 3 m/S 688 mmHg 56%
    15:00 +9°C° 0 mm 3 m/S 688 mmHg 57%
    16:00 +9°C° 0 mm 3 m/S 688 mmHg 58%
    17:00 +8°C° 0 mm 3 m/S 688 mmHg 59%
    18:00 +8°C° 0 mm 3 m/S 687 mmHg 63%
    19:00 +7°C° 0 mm 3 m/S 687 mmHg 68%
    20:00 +5°C° 0 mm 3 m/S 687 mmHg 73%
    21:00 +4°C° 0 mm 3 m/S 687 mmHg 75%
    22:00 +4°C° 0 mm 3 m/S 687 mmHg 76%
    23:00 +4°C° 0 mm 3 m/S 686 mmHg 78%

    27 Februar, Dienstag

    Zeit Temperatur Niederschläge Wind Luftdruck Luftfeuchtigkeit
    00:00 +4°C° 0 mm 3 m/S 686 mmHg 78%
    01:00 +5°C° 0 mm 2 m/S 686 mmHg 78%
    02:00 +5°C° 0 mm 2 m/S 686 mmHg 78%
    03:00 +5°C° 0,3 mm 2 m/S 686 mmHg 78%
    04:00 +5°C° 0,3 mm 2 m/S 686 mmHg 79%
    05:00 +5°C° 0,3 mm 2 m/S 685 mmHg 79%
    06:00 +5°C° 1 mm 2 m/S 686 mmHg 80%
    07:00 +6°C° 1 mm 2 m/S 686 mmHg 80%
    08:00 +5°C° 1 mm 3 m/S 687 mmHg 81%
    09:00 +6°C° 0 mm 4 m/S 687 mmHg 72%
    10:00 +8°C° 0 mm 6 m/S 688 mmHg 63%
    11:00 +9°C° 0 mm 7 m/S 689 mmHg 53%
    12:00 +10°C° 0 mm 7 m/S 689 mmHg 49%
    13:00 +11°C° 0 mm 7 m/S 689 mmHg 45%
    14:00 +11°C° 0 mm 7 m/S 689 mmHg 41%
    15:00 +11°C° 0 mm 6 m/S 689 mmHg 43%
    16:00 +11°C° 0 mm 4 m/S 689 mmHg 45%
    17:00 +11°C° 0 mm 3 m/S 690 mmHg 47%
    18:00 +10°C° 0 mm 2 m/S 690 mmHg 51%
    19:00 +10°C° 0 mm 1 m/S 691 mmHg 54%
    20:00 +9°C° 0 mm 1 m/S 691 mmHg 58%
    21:00 +8°C° 0 mm 1 m/S 691 mmHg 58%
    22:00 +8°C° 0 mm 1 m/S 692 mmHg 59%
    23:00 +8°C° 0 mm 1 m/S 692 mmHg 59%

    28 Februar, Mittwoch

    Zeit Temperatur Niederschläge Wind Luftdruck Luftfeuchtigkeit
    00:00 +7°C° 0 mm 1 m/S 692 mmHg 61%
    01:00 +7°C° 0 mm 1 m/S 693 mmHg 63%
    02:00 +6°C° 0 mm 2 m/S 693 mmHg 65%
    03:00 +6°C° 0 mm 2 m/S 693 mmHg 67%
    04:00 +5°C° 0 mm 2 m/S 693 mmHg 70%
    05:00 +5°C° 0 mm 2 m/S 693 mmHg 72%
    06:00 +6°C° 0 mm 2 m/S 693 mmHg 69%
    07:00 +6°C° 0 mm 2 m/S 693 mmHg 66%
    08:00 +7°C° 0 mm 2 m/S 693 mmHg 63%
    09:00 +9°C° 0 mm 3 m/S 693 mmHg 57%
    10:00 +11°C° 0 mm 4 m/S 693 mmHg 51%
    11:00 +13°C° 0 mm 4 m/S 692 mmHg 44%
    12:00 +13°C° 0 mm 5 m/S 692 mmHg 41%
    13:00 +14°C° 0 mm 5 m/S 692 mmHg 38%
    14:00 +15°C° 0 mm 6 m/S 691 mmHg 35%
    15:00 +14°C° 0 mm 5 m/S 691 mmHg 39%
    16:00 +14°C° 0 mm 5 m/S 691 mmHg 43%
    17:00 +13°C° 0 mm 4 m/S 691 mmHg 47%
    18:00 +12°C° 0 mm 4 m/S 691 mmHg 52%
    19:00 +11°C° 0 mm 4 m/S 691 mmHg 57%
    20:00 +10°C° 0 mm 3 m/S 691 mmHg 61%
    21:00 +10°C° 0 mm 3 m/S 691 mmHg 63%
    22:00 +8°C° 0 mm 4 m/S 691 mmHg 66%
    23:00 +8°C° 0 mm 4 m/S 691 mmHg 68%

    1 März, Donnerstag

    Zeit Temperatur Niederschläge Wind Luftdruck Luftfeuchtigkeit
    00:00 +8°C° 0,3 mm 4 m/S 691 mmHg 70%
    01:00 +8°C° 0,3 mm 4 m/S 692 mmHg 73%
    02:00 +7°C° 0,3 mm 4 m/S 692 mmHg 75%
    03:00 +7°C° 0,5 mm 4 m/S 693 mmHg 77%
    04:00 +7°C° 0,5 mm 4 m/S 693 mmHg 79%
    05:00 +7°C° 0,5 mm 4 m/S 693 mmHg 81%
    06:00 +7°C° 0,2 mm 4 m/S 694 mmHg 75%
    07:00 +6°C° 0,2 mm 4 m/S 695 mmHg 70%
    08:00 +6°C° 0,2 mm 4 m/S 695 mmHg 64%
    09:00 +7°C° 0 mm 5 m/S 696 mmHg 57%
    10:00 +7°C° 0 mm 5 m/S 696 mmHg 50%
    11:00 +8°C° 0 mm 5 m/S 697 mmHg 43%
    12:00 +8°C° 0 mm 5 m/S 697 mmHg 40%
    13:00 +8°C° 0 mm 5 m/S 697 mmHg 37%
    14:00 +9°C° 0 mm 5 m/S 697 mmHg 33%
    15:00 +8°C° 0 mm 4 m/S 697 mmHg 34%
    16:00 +8°C° 0 mm 4 m/S 697 mmHg 35%
    17:00 +8°C° 0 mm 3 m/S 697 mmHg 37%
    18:00 +7°C° 0 mm 2 m/S 698 mmHg 42%
    19:00 +6°C° 0 mm 2 m/S 698 mmHg 47%
    20:00 +6°C° 0 mm 1 m/S 698 mmHg 52%
    21:00 +6°C° 0 mm 1 m/S 698 mmHg 55%
    22:00 +5°C° 0 mm 1 m/S 698 mmHg 58%
    23:00 +5°C° 0 mm 1 m/S 698 mmHg 61%
    Mehr zeigen